Find Tian Lian 2-01

NORAD ID: 44076 Int'l Des: 2019-017 Owner: CAST Country: CN operational
HEOCIRCULARGSO

Live-Position

3D-Globus wird geladen...

Über Tian Lian 2-01

Beschreibung wird geladen...

Nächste Überflüge

Passes for default location (London). Set your location on the main map for personalized predictions.

Höhenverlauf

Loading altitude history...

Zweizeiliger Elementsatz

1 44076U 19017A 26106.89038959 -.00000099 00000-0 00000-0 0 9994
2 44076 0.3808 82.5564 0001775 256.1955 263.8326 1.00271058 26030
Epoch: 16. Apr. 2026 • Age: 11 hours

Aktueller Status

Höhe 35784.2 km
Geschwindigkeit 3.07 km/s
Subsatellitenpunkt -0.19°S, 77.02°E
Startdatum 31. März 2019
Alter 7 years
Typ other

Technische Details

Klassifizierung Payload
Masse 5000.00 kg
Trockenmasse 2000.00 kg
Gesamtmasse 5000.00 kg
Länge 6.00 m
Durchmesser 2.50 m
Spannweite 20.00 m
Form Box + 2 Pan + Dish
Hersteller CAST
Bus-Typ DFH-4
Phasenstatus In Orbit
Besitzer/Staat CAST/CN

Most Searched